Regional Weather Roundup
Issued by NWS Upton, NY

Current Version | Previous Version | Graphics & Text | Print | Product List | Glossary Off
Versions: 1 2 3 4 5 6 7 8 9 10 11 12 13 14 15 16 17 18 19 20 21 22 23 24 25 26 27 28 29 30 31 32 33 34 35 36 37 38 39 40 41 42 43 44 45 46 47 48 49 50

000
ASUS41 KOKX 240108
RWROKX

REGIONAL WEATHER ROUNDUP
NATIONAL WEATHER SERVICE NEW YORK NY
900 PM EDT SAT MAY 23 2015

NOTE: "FAIR" INDICATES FEW OR NO CLOUDS BELOW 12,000 FEET WITH NO
SIGNIFICANT WEATHER AND/OR OBSTRUCTIONS TO VISIBILITY.

NYZ071-072-176-178-NJZ106-104-240200-
NEW YORK CITY METRO AREA


CITY           SKY/WX    TMP DP  RH WIND       PRES   REMARKS
CENTRAL PARK   CLEAR     60  40  47 VRB5      30.36S
LAGUARDIA APRT PTCLDY    59  42  53 S10       30.33S
KENNEDY INTL   CLEAR     56  46  69 S20       30.35F
NEWARK/LIBERTY PTCLDY    65  28  24 SW9       30.33R
BRNX BOT. GARD   N/A     55  41  58 E3        30.34F
TETERBORO      CLEAR     60  40  47 S3        30.32S
$$

NYZ177-179-078>081-240200-
LONG ISLAND NEW YORK

CITY           SKY/WX    TMP DP  RH WIND       PRES   REMARKS
FARMINGDALE    CLEAR     54  43  66 SW10      30.36S
ISLIP          PTCLDY    54  42  64 SW8       30.34S
SHIRLEY        CLEAR     54  42  64 S8        30.37R
WESTHAMPTON    CLEAR     52  42  69 SW7       30.37R
MONTAUK POINT    N/A     54  37  52 SW7       30.36R
$$

NYZ052-065-067-240200-
HUDSON VALLEY

CITY           SKY/WX    TMP DP  RH WIND       PRES   REMARKS
WHITE PLAINS   CLEAR     53  42  66 S5        30.33R
NEWBURGH       CLEAR     59  34  38 CALM      30.33S
MONTGOMERY     CLEAR     49  40  71 CALM      30.32R
POUGHKEEPSIE   CLEAR     62  29  28 SW5       30.30S
ALBANY         CLEAR     54  31  41 CALM      30.30S
$$

NJZ001-105-106-008-010-013-015-019>022-104-240200-
NEW JERSEY

CITY           SKY/WX    TMP DP  RH WIND       PRES   REMARKS
NEWARK/LIBERTY PTCLDY    65  28  24 SW9       30.33R
TETERBORO      CLEAR     60  40  47 S3        30.32S
CALDWELL       CLEAR     62  29  28 CALM      30.33S
MORRISTOWN     PTCLDY    57  34  41 CALM      30.33S
SOMERVILLE     CLEAR     55  36  48 CALM      30.32S
SUSSEX         CLEAR     53  34  48 CALM      30.34S
ANDOVER          N/A     53  40  61 CALM      30.33S
TRENTON        CLEAR     61  32  33 SW5       30.34F
MILLVILLE      CLEAR     57  46  66 VRB3      30.38S
ATLANTIC CITY  CLEAR     57  46  66 S8        30.38R
WRIGHTSTOWN    CLEAR     59  34  38 S2        30.33S
TOMS RIVER     CLEAR    N/A N/A N/A SE5       30.37S
BELMAR         CLEAR     55  43  62 S3        30.36S
$$

PAZ047>061-062-071-240200-
EASTERN PENNSYLVANIA

CITY           SKY/WX    TMP DP  RH WIND       PRES   REMARKS
PHILADELPHIA   PTCLDY    65  37  35 S7        30.37S
ALLENTOWN      CLEAR     57  30  35 SW6       30.34S
SCRANTON       CLEAR     59  30  33 S3        30.32S
$$

CTZ002-004>006-009-010-012-RIZ004-006-007-MAZ004-011-015-240200-
SOUTHERN NEW ENGLAND
 IN CT

CITY           SKY/WX    TMP DP  RH WIND       PRES   REMARKS
BRADLEY INTL   PTCLDY    60  28  29 SW5       30.29S
HARTFORD       CLEAR     55  38  52 S5        30.30S
DANBURY        CLEAR     51  35  54 SW6       30.33S
WTRBRY/OXFORD  CLEAR     54  32  43 CALM      30.33R
BRIDGEPORT     CLEAR     58  44  60 SW15      30.33R
MERIDEN          N/A     53  34  48 CALM      30.31S
NEW HAVEN      CLEAR     56  43  61 S8        30.33R
CHESTER        FAIR      54  37  54 SW7       30.33S
GROTON         CLEAR     54  41  61 SW8       30.33R
WILLIMANTIC    CLEAR     53  36  52 S5        30.31R

 IN RI

CITY           SKY/WX    TMP DP  RH WIND       PRES   REMARKS
PROVIDENCE     CLEAR     56  32  40 SW9       30.31R
BLOCK ISLAND   CLEAR     52  37  58 SW10      30.34S
WESTERLY       CLEAR     54  42  64 S3        30.34R

 IN MA

CITY           SKY/WX    TMP DP  RH WIND       PRES   REMARKS
BOSTON         PTCLDY    60  23  24 W9        30.28S
WORCESTER      CLEAR     53  25  33 SW5       30.29R
WESTFIELD      CLEAR     51  33  50 CALM      30.29S
PROVINCETOWN   CLEAR     54  43  66 SW14      30.30R
NANTUCKET      CLEAR     52  42  69 SW15      30.34S
$$

ANZ330-335-338-340-345-350-353-355-240200-
COASTAL MARINE OBSERVATIONS


STATION/POSITION TIME  SKY/WX   TEMP    WIND        PRES    VSBY  WAVE
                                AIR SEA DIR/SP/G                  HT/PER
                 (UTC)          (F)     (DEG/KT/KT) (MB)    (MI)  (FT/S)
NY HARB ENTRANCE 0050            56 55  200/ 16/ 19 1027.3          3/ 4
4S FIRE IS       0003               53                N/A           3/ 3
20S FIRE ISLAND  0050            54 55  210/ 16/ 19 1027.9          2/ 3
GREAT SOUTH BAY  0000            56 63  250/ 14/ 17   N/A
23SW MTP         0050            54 53  220/ 12/ 16 1027.7          2/ 4
HUDSON CANYON    NOT AVBL
KINGS POINT      0000            58 55  190/ 11/ 13 1026.7
CENTRAL LI SOUND 0000            56 52  200/ 14/ 16   N/A
EASTERN LI SOUND 0000            54     220/  8/ 10   N/A
ROBBINS REEF     0000            61     180/ 15/ 17 1026.0
$$


>>>>>>>>>>>>>>>>>>>>>>>>>>>> KEY <<<<<<<<<<<<<<<<<<<<<<<<<<<
>                                                          <
>     SKY/WX - SKY CONDITION/PRESENT WEATHER               <
>     TMP    - TEMPERATURE IN FAHRENHEIT                   <
>     DP     - DEWPOINT IN FAHRENHEIT                      <
>     RH     - RELATIVE HUMIDITY IN PERCENT                <
>     WIND   - DIRECTION AND SPEED IN MPH                  <
>     PRES   - MEAN SEA LEVEL PRESSURE IN INCHES OF HG     <
>     WCI    - WIND CHILL INDEX                            <
>     VSB    - VISIBILITY IN MILES                         <
>     HX     - HEAT INDEX                                  <
>     TC     - TEMPERATURE IN CELSIUS                      <
>     VRB    - VARIABLE WIND DIRECTION                     <
>                                                          <
>>>>>>>>>>>>>>>>>>>>>>>>>>>> KEY <<<<<<<<<<<<<<<<<<<<<<<<<<<





USA.gov is the U.S. government's official web portal to all federal, state and local government web resources and services.